Regional Weather Roundup
Issued by NWS

Home | Current Version | Previous Version | Text Only | Print | Product List | Glossary Off
Versions: 1 2 3 4 5 6 7 8 9 10 11 12 13 14 15 16 17 18 19 20 21 22 23 24 25 26 27 28 29 30 31 32 33 34 35 36 37 38 39 40 41 42 43 44 45 46 47 48 49 50

000
ASUS43 KDMX 271206
RWRIA

WEATHER ROUNDUP FOR IOWA
NATIONAL WEATHER SERVICE DES MOINES IA
700 AM CDT TUE JUN 27 2017

NOTE: "FAIR" INDICATES FEW OR NO CLOUDS BELOW 12,000 FEET WITH NO
SIGNIFICANT WEATHER AND/OR OBSTRUCTIONS TO VISIBILITY.

* - THESE STATIONS ARE NOT NWS STATIONS...THUS NOT UNDER NWS
QUALITY CONTROL.  THEY ALSO DO NOT REPORT WEATHER SUCH
AS PRECIPITATION OR FOG.

IAZ001>003-012>014-020>022-031>034-043>046-271300-
   NORTHWEST IOWA

CITY           SKY/WX    TMP DP  RH WIND       PRES   REMARKS
CARROLL *      SUNNY     50  48  93 CALM      30.13S
CHEROKEE *     SUNNY     46  46 100 CALM      30.12S
DENISON *      SUNNY     54  45  71 CALM      30.14S
LE MARS *      SUNNY     50  45  81 CALM      30.11F
ORANGE CITY *  SUNNY     54  43  66 SE5       30.10F
SHELDON *      SUNNY     52  45  76 S7        30.09F
SIOUX CITY     SUNNY     50  46  86 SE8       30.09F
6HR MIN TEMP:  46; 6HR MAX TEMP:  53;

SPENCER        SUNNY     51  45  79 CALM      30.12F
6HR MIN TEMP:  43; 6HR MAX TEMP:  51;

STORM LAKE *   SUNNY     52  43  71 S7        30.13S
$$

IAZ055>058-069>071-079>083-090>094-271300-
   SOUTHWEST IOWA

CITY           SKY/WX    TMP DP  RH WIND       PRES   REMARKS
ATLANTIC *     SUNNY     48  46  93 CALM      30.13S
AUDUBON *      SUNNY     48  45  87 CALM      30.14S
CLARINDA *     SUNNY     52  52 100 CALM      30.14F
COUNCIL BLFS * SUNNY     55  52  88 SE3       30.11F
CRESTON *      SUNNY     54  48  82 SE5       30.16S
HARLAN  *      SUNNY     48  48 100 CALM      30.16S
LAMONI         SUNNY     56  47  71 SE5       30.15R
6HR MIN TEMP:  52; 6HR MAX TEMP:  61;

RED OAK *      SUNNY     55  50  82 CALM      30.12F
SHENANDOAH *   SUNNY     55  52  88 CALM      30.12S
$$

IAZ047>049-059>061-072>074-084-271300-
   CENTRAL IOWA

CITY           SKY/WX    TMP DP  RH WIND       PRES   REMARKS
AMES           SUNNY     50  49  96 CALM      30.15R
6HR MIN TEMP:  45; 6HR MAX TEMP:  51;

ANKENY *       SUNNY     48  48 100 CALM      30.16R
BOONE *        SUNNY     55  46  71 MISG      30.14S
CHARITON *     SUNNY     54  48  82 SE5       30.15S
DES MOINES     MOSUNNY   55  47  74 S3        30.15R
6HR MIN TEMP:  54; 6HR MAX TEMP:  61;

GRINNELL*      SUNNY     53  47  81 CALM      30.17S
KNOXVILLE *    SUNNY     54  46  76 S6        30.14R
MARSHALLTOWN   SUNNY     49  48  97 CALM      30.15R
6HR MIN TEMP:  45; 6HR MAX TEMP:  51;

NEWTON *       SUNNY     50  45  81 E3        30.15S
PELLA *        SUNNY     52  48  87 CALM      30.16S
PERRY *          N/A     49  48  97 CALM      30.14S
$$

IAZ004>006-015-016-023>025-035-036-271300-
   NORTH CENTRAL IOWA

CITY           SKY/WX    TMP DP  RH WIND       PRES   REMARKS
ALGONA *       SUNNY     52  46  82 S6        30.14S
CLARION *        N/A     54  48  82 S5        30.14S
ESTHERVILLE    SUNNY     49  46  90 S6        30.12S
6HR MIN TEMP:  46; 6HR MAX TEMP:  50;

FORT DODGE *   SUNNY     50  46  87 CALM      30.15S
MASON CITY     SUNNY     54  47  77 CALM      30.15F
6HR MIN TEMP:  46; 6HR MAX TEMP:  54;

FOREST CITY *    N/A     48  37  66 CALM      30.14F
WEBSTER CITY * SUNNY     50  46  87 CALM      30.12S
IOWA FALLS *     N/A     51  46  83 CALM      30.16S
$$

IAZ007>011-017>019-026>030-037>042-050>054-066-271300-
   NORTHEAST IOWA

CITY           SKY/WX    TMP DP  RH WIND       PRES   REMARKS
CEDAR RAPIDS   SUNNY     49  48  97 CALM      30.15R
6HR MIN TEMP:  45; 6HR MAX TEMP:  53;

CHARLES CITY * SUNNY     52  50  93 SW3       30.16R
CLINTON *      SUNNY     52  48  86 W6        30.16R
DECORAH *      SUNNY     54  46  76 CALM      30.13S
DUBUQUE        SUNNY     51  47  86 CALM      30.15R
6HR MIN TEMP:  46; 6HR MAX TEMP:  51;

MONTICELLO *   SUNNY     50  48  93 CALM      30.15R
WATERLOO       SUNNY     52  48  86 CALM      30.14S
6HR MIN TEMP:  45; 6HR MAX TEMP:  52;

$$

IAZ064-065-067-068-078-271300-
   EAST CENTRAL IOWA

CITY           SKY/WX    TMP DP  RH WIND       PRES   REMARKS
DAVENPORT      MOSUNNY   53  48  83 W5        30.16R
6HR MIN TEMP:  45; 6HR MAX TEMP:  53;

IOWA CITY      SUNNY     52  48  86 CALM      30.17S
6HR MIN TEMP:  48; 6HR MAX TEMP:  53;

MUSCATINE *    SUNNY     52  48  87 CALM      30.16S
QUAD CITIES    SUNNY     54  47  77 CALM      30.16R
6HR MIN TEMP:  46; 6HR MAX TEMP:  54;

$$

IAZ062-063-075>077-085>089-095>099-271300-
   SOUTHEAST IOWA

CITY           SKY/WX    TMP DP  RH WIND       PRES   REMARKS
BURLINGTON     SUNNY     56  54  93 CALM      30.16R
6HR MIN TEMP:  47; 6HR MAX TEMP:  56;

FAIRFIELD *    SUNNY     52  48  87 CALM      30.16R
FORT MADISON * SUNNY     54  52  94 CALM      30.17R
KEOKUK *       SUNNY     54  52  94 CALM      30.15S
OSKALOOSA *      N/A     53  49  87 CALM      30.16S
CENTERVILLE *    N/A     55  50  82 CALM      30.17R
OTTUMWA        SUNNY     53  50  89 S3        30.15S
6HR MIN TEMP:  44; 6HR MAX TEMP:  57;

WASHINGTON *   SUNNY     52  50  93 CALM      30.17S
$$

ABBREVIATIONS USED IN REMARKS
   TC - TEMPERATURES IN CELSIUS
  WCI - WIND CHILL INDEX
   HX - HEAT INDEX
  VSB - VISIBILITY
$$




USA.gov is the U.S. government's official web portal to all federal, state and local government web resources and services.